Hourly Data Report for April 18, 2004

SHERBROOKE A
QUEBEC

45°26'00.000" N
71°41'00.000" W
241.40 m
7028124
71610
YSC

Download Data

Hourly Data (April 2004)
Hourly Data Report for April 18, 2004
TIME
LST
Temp Definition
°C
Dew Point Definition
°C
Rel Hum Definition
%
Precip. Amount Definition
mm

Wind Dir Definition
10's deg

Wind Spd Definition
km/h
Visibility Definition
km
Stn Press Definition
kPa
Hmdx Definition


Wind Chill Definition


Weather Definition


00:00 5.8 4.6 92     0 11.3 99.46      
01:00 6.0 4.8 92   30 6 8.0 99.51      
02:00 5.3 4.2 93   31 11 4.0 99.55      
03:00 4.4 3.5 94   21 4 3.2 99.66      
04:00 4.6 3.7 94     0 2.6 99.71      
05:00 4.4 3.7 95   29 6 0.8 99.79      
06:00 4.4 3.7 95   28 6 3.2 99.87      
07:00 4.5 3.8 95   25 4 1.6 99.91     Drizzle, Fog
08:00 5.3 4.0 91     0 12.9 100.03     Mostly Cloudy
09:00 7.8 3.3 73   8 4 24.1 100.10     Mostly Cloudy
10:00 9.6 2.2 60   14 6 24.1 100.08     Mostly Cloudy
11:00 11.0 0.9 50   14 9 24.1 100.04     Mostly Cloudy
12:00 12.4 1.4 47   22 7 24.1 100.02     Mostly Cloudy
13:00 12.9 -0.1 41   5 7 24.1 99.97     Cloudy
14:00 13.2 0.1 41   19 7 24.1 99.90     Cloudy
15:00 14.0 -0.1 38   20 6 24.1 99.84     Cloudy
16:00 13.5 1.1 43   29 4 24.1 99.76     Cloudy
17:00 13.2 0.7 42     0 15.0 99.74      
18:00 12.3 1.0 46   6 7 15.0 99.62      
19:00 10.7 2.5 57   7 7 15.0 99.55     Rain
20:00 10.2 2.2 58   8 9 15.0 99.45      
21:00 10.0 3.2 63   11 6 15.0 99.34     Rain
22:00 8.8 4.8 76   12 9 15.0 99.14      
23:00 9.3 5.5 77   14 13 15.0 98.92      

Notes on Data Quality.

Legend

  • E = Estimated
  • M = Missing
  • NA = Not Available*
  • [empty] = Indicates an unobserved value
Date modified: